User: anonymous   Login
Location: Unspecified
(0.0000°N, 0.0000°E)
Time: 10:52:20
(UTC+00:00)
Language:

RADARSAT 2 - Orbit

View from above orbital plane
View from above orbital plane
View from above satellite
View from above satellite

Ground track
Ground track

The orbit data is extracted from the following two-line orbital elements,

1 32382U 07061A   18201.17860304 -.00000032  00000-0  43252-5 0  9990
2 32382  98.5758 207.9692 0001147  99.6312  34.2545 14.29983454553173
Epoch (UTC): 20 July 2018 04:17:11
Eccentricity: 0.0001147
inclination: 98.5758°
perigee height: 791 km
apogee height: 792 km
right ascension of ascending node: 207.9692°
argument of perigee: 99.6312°
revolutions per day: 14.29983454
mean anomaly at epoch: 34.2545°
orbit number at epoch: 55317

The dashed part of the orbit path shows where the satellite is in the earth's shadow,  

DLR